Showing default

BRO-12, 59108

Orbit data source: Space-Track

BRO-12, 59108 is a payload satellite owned by Unseen Labs (FR) in SSO that was launched on Mon, 04 Mar 2024 UTC via an FALCON 9 launch vehicle from the Air Force Western Test Range (AFWTR). Payload-class satellites include a variety of spacecraft equipped with specific instruments for various scientific and technological missions. These include communications satellites like Starlink; space stations such as the ISS; scientific satellites like the Hubble; Earth observation satellites from companies like Planet Labs, Umbra, and HawkEye 360; GPS; miniature CubeSats for education and research; and military/defense satellites.

Loading next visibility...
Identifier
59108, 2024-043L
Orbit
SSO
Country
Flag of FRFR
Related business
Manufacturer
GOMSpace
Mission
Operational Commercial Sigint
Bus & Motor
CUBESAT 8U, Unknown motor
Mass
15 kg wet, ~15 kg dry
Launch date (UTC)
2024-03-04 (2 years ago)
Launch vehicle
FALCON 9
Launch site
Air Force Western Test Range (AFWTR)
Object type
Payload
Rocket body
Debris
Shape & HBR
Box, 0.2 m
Radar Cross Section
0.100 m², Medium (>0.1 m² and < 1m²)

Expand to show TLE details & history
Last TLE update: 21 hours ago

TLE from 21 hours ago
0 BRO-12
1 59108U 24043L   26172.56742530  .00001027  00000-0  94816-4 0  9998
2 59108  97.8484 303.7637 0007612 348.1948  11.9094 14.96843689125298
Epoch: 2026-06-21T13:37Z
TLE epoch observation values (Epoch: 2026-06-21T13:37:05.545Z)
Latitude
-0.00001°
Longitude
-170.27524°
Altitude
574.521 km
Speed
7.576 km/s
True Right ascension
20h 15m 03s
True Declination
0° 00' 00"
Sunlit
Object was in full shadow at epoch
Visualization orbit readout
Latitude
Unknown
Longitude
Unknown
Altitude
Unknown
Speed
Unknown
Apparent Right ascension
Unknown
Apparent Declination
Unknown
Sunlit
N/A
Visualization observer readout
Local Sidereal Time
21:43:30
Azimuth
Unknown
Elevation
Unknown
Doppler factor
Unknown
Orbital elements
Apogee altitude
578.964 km
Perigee altitude
568.38 km
Semi-major axis
6,951.809 km
Eccentricity
0.00076
Inclination
97.8484°
RAAN
303.7637°
Arg. of periapsis
348.1948°
True anomaly
11.92742°
Mean anomaly
11.9094°
Eccentric anomaly
11.91841°
Mean motion
3.74452 °/min
Orbital period
96.14 mins
BSTAR
0.000094816
Loading maneuver chart data...
Computing Atmospheric mass density...
Loading historical data...
Loading historical data...
Loading historical data...
Loading historical data...
Loading historical data...
Loading historical data...
Loading historical data...

Documentation

Showing up to 5 results
|